Regional Weather Roundup
Issued by NWS

Home | Current Version | Previous Version | Text Only | Print | Product List | Glossary Off
Versions: 1 2 3 4 5 6 7 8 9 10 11 12 13 14 15 16 17 18 19 20 21 22 23 24 25 26 27 28 29 30 31 32 33 34 35 36 37 38 39 40 41 42 43 44 45 46 47 48 49 50

000
ASUS43 KMKX 300259
RWRWI

WISCONSIN REGIONAL WEATHER ROUNDUP
NATIONAL WEATHER SERVICE MILWAUKEE/SULLIVAN WI
900 PM CST THU JAN 29 2015

NOTE: "FAIR" INDICATES FEW OR NO CLOUDS BELOW 12,000 FEET WITH NO
SIGNIFICANT WEATHER AND/OR OBSTRUCTIONS TO VISIBILITY.

WIZ001-002-006>008-014>016-023>028-300400-
NORTHWEST WISCONSIN

CITY           SKY/WX    TMP DP  RH WIND       PRES   REMARKS
SUPERIOR ARPT  MOCLDY    11   2  67 N8        30.50R WCI  -1
ASHLAND        MOCLDY    16   7  67 NW8       30.44R WCI   5
HAYWARD        CLOUDY    12   3  67 VRB6      30.43R WCI   3
SIREN          CLEAR     13   5  72 NW7       30.47R WCI   2
CUMBERLAND     PTCLDY    14   5  67 NW12      30.42R WCI   0
RICE LAKE      CLOUDY    16   7  66 NW7       30.43R WCI   6
CHETEK         PTCLDY    16   6  65 N8        30.42R WCI   5
LADYSMITH      CLOUDY    17   8  66 NW17      30.40R WCI   2
EAU CLAIRE     NOT AVBL
MENOMONIE      PTCLDY    19   8  61 NW22      30.43R WCI   3
NEW RICHMOND   CLEAR     15   7  71 NW15      30.46R WCI   0
OSCEOLA        CLEAR     16   7  67 NW10      30.51R WCI   4
$$

WIZ003>005-009-010-017-018-300400-
NORTH CENTRAL WISCONSIN

CITY           SKY/WX    TMP DP  RH WIND       PRES   REMARKS
MANITOWISH WTR CLOUDY    15   8  72 N10G23    30.30R HAZE    WCI   2
ARBOR VITAE    LGT SNOW  17  10  72 N20       30.28R WCI   1
WOODRUFF       LGT SNOW  17  10  72 N20       30.28R WCI   1
RHINELANDER    FLURRIES  16   7  67 NW12G23   30.28R WCI   3
EAGLE RIVER    LGT SNOW  16  10  78 N10       30.26R WCI   3
LAND O LAKES   LGT SNOW  16  10  78 N13G22    30.27R WCI   2
PHILLIPS       LGT SNOW  16   9  75 NW10G17   30.32R WCI   3
TOMAHAWK       CLOUDY    18   8  66 NW10      30.30R WCI   6
MEDFORD        FLURRIES  18  10  71 NW15      30.31R WCI   4
MERRILL        CLOUDY    19  11  71 N17G24    30.29R HAZE    WCI   4
$$

WIZ029-030-035-036-043>047-300400-
CENTRAL WISCONSIN

CITY           SKY/WX    TMP DP  RH WIND       PRES   REMARKS
WAUSAU         LGT SNOW  20  14  77 NW12      30.29R WCI   8
MOSINEE        CLOUDY    21  14  73 NW16G24   30.31R WCI   7
MARSHFIELD     CLOUDY    21  10  62 NW21G28   30.32R WCI   5
STEVENS POINT  CLOUDY    22  12  64 N8        30.30R WCI  13
WAUPACA        CLOUDY    27  11  50 NW16      30.30R WCI  15
WAUTOMA        NOT AVBL
WISC RAPIDS    CLOUDY    23  13  65 NW13G22   30.33R WCI  11
CAMP DOUGLAS   NOT AVBL
$$

WIZ011>013-019>022-031-037>040-048>050-300400-
NORTHEAST WISCONSIN

CITY           SKY/WX    TMP DP  RH WIND       PRES   REMARKS
ANTIGO         CLOUDY    18  10  71 NW18      30.26R WCI   2
SHAWANO        CLOUDY    26  12  55 N10G16    30.29R WCI  16
OCONTO         CLOUDY    23  11  61 MISG      30.29R
STURGEON BAY   PTCLDY    19   9  63 N18       30.28R WCI   4
GREEN BAY      CLOUDY    24   9  52 N21G32    30.29R WCI   9
MANITOWOC      NOT AVBL
APPLETON       CLOUDY    25   9  50 N18G30    30.29R WCI  11
CLINTONVILLE   CLOUDY    27  10  50 N10       30.29R WCI  17
OSHKOSH        CLOUDY    25  12  58 N18G25    30.28R WCI  11
$$

WIZ032>034-041-042-053>061-300400-
SOUTHWEST WISCONSIN

CITY           SKY/WX    TMP DP  RH WIND       PRES   REMARKS
LA CROSSE      CLOUDY    26  14  60 NW17G28   30.40R WCI  13
SPARTA         CLOUDY    25  12  58 NW15G21   30.38R WCI  13
VIROQUA        CLOUDY    25  15  65 NW18G26   30.32R WCI  11
BOSCOBEL       CLOUDY    29  14  53 NW13      30.37R WCI  19
PRAIRIE DU CHI PTCLDY    28  15  57 NW10G20   30.38R WCI  19
PLATTEVILLE    CLOUDY    28  18  66 NW22G29   30.31R WCI  15
$$

WIZ056-057-062-063-064-067-068-300400-
SOUTH CENTRAL WISCONSIN

CITY           SKY/WX    TMP DP  RH WIND       PRES   REMARKS
REEDSBURG      CLOUDY    28  17  65 NW13G21   30.30R WCI  17
BARABOO/DELLS  FLURRIES  28  18  67 N14G20    30.29R WCI  17
LONE ROCK      NOT AVBL
MINERAL POINT  CLOUDY    30  18  59 NW15G23   30.29R WCI  19
MADISON        FLURRIES  29  19  66 N10       30.28R WCI  20
MIDDLETON      CLOUDY    31  19  60 NW16      30.28R WCI  20
WATERTOWN      CLOUDY    30  20  66 NW17      30.25R WCI  18
MONROE         CLOUDY    32  21  64 NW12G23   30.26R WCI  23
JANESVILLE     CLOUDY    34  19  55 NW15G21   30.26R WCI  24
$$

WIZ051-052-058>065-066-070>072-300400-
SOUTHEAST WISCONSIN

CITY           SKY/WX    TMP DP  RH WIND       PRES   REMARKS
MILWAUKEE      FLURRIES  31  17  56 N20G26    30.23R WCI  19
WAUKESHA       FLURRIES  27  19  74 N14G21    30.25R WCI  15
MILWAUKEE/TIMM FLURRIES  30  16  55 N16G24    30.24R WCI  19
RACINE         CLOUDY    32  18  56 N14G22    30.24R WCI  22
BURLINGTON     CLOUDY    31  18  58 NW16G25   30.23R WCI  20
KENOSHA        CLOUDY    33  19  56 NW17G25   30.22R WCI  22
FOND DU LAC    CLOUDY    26  12  55 N17G23    30.28R WCI  13
SHEBOYGAN      CLOUDY    26  15  63 N17       30.25R WCI  13
WEST BEND      CLOUDY    28  14  54 N16G23    30.24R WCI  17
JUNEAU         LGT SNOW  27  22  80 N13       30.26R WCI  16
$$

LSZ147-162-300400-
LAKE SUPERIOR

STATION/POSITION TIME  TEMP    WIND        PRES    WAVE
                       AIR SEA DIR/SP/G            HT/PER
                 (UTC) (F)     (DEG/KT/KT) (MB)    (FT/S)
DEVILS ISLAND    0200   16     330/ 22/ 26 1032.0R
PORT WING        0200   18     320/ 19/ 22 1031.2R
SAXON HARBOR     0200   21     320/ 19/ 22 1029.5R
$$

LMZ867-665-643>646-300400-
LAKE MICHIGAN

STATION/POSITION TIME  TEMP    WIND        PRES    WAVE
                       AIR SEA DIR/SP/G            HT/PER
                 (UTC) (F)     (DEG/KT/KT) (MB)    (FT/S)
NORTHPORT PIER   0205   20     320/ 26     1023.7R
SISTER BAY       0213   19      20/ 25/ 32   N/A
KEWAUNEE LAKESHO 0200   23     340/ 14/ 24 1022.9R
SHEBOYGAN LAKESH 0200   28     360/ 25/ 28 1024.3R
PORT WASHINGTON  0240   30     350/ 10/ 19 1024.7R
MILWAUKEE LAKESH 0200   33     340/ 17/ 22   N/A
KENOSHA   LAKESH 0200   35     320/ 11/ 16 1022.0R
$$

TC  - TEMPERATURE IN CELSIUS
VSB - VISIBILITY IN STATUTE MILES
WCI - WIND CHILL INDEX
HX  - HEAT INDEX




USA.gov is the U.S. government's official web portal to all federal, state and local government web resources and services.